Location: ??
(34.9170°N, 135.5016°E)
Time: 23:36:42
(UTC+00:00)

RS-15 - Pass Details

Date: 21 April 2021
Orbit: 1888 x 2157 km, 64.8° (Epoch: 12 May)

Event Time Altitude Azimuth Distance (km) Brightness Sun altitude
Rises 12:07:02 0° 270° (W) 5,320 11.0 -28.2°
Reaches altitude 10° 12:11:46 10° 287° (WNW) 4,362 10.6 -28.9°
Maximum altitude 12:19:22 20° 331° (NNW) 3,685 10.1 -30.1°
Drops below altitude 10° 12:27:15 10° 15° (NNE) 4,516 10.2 -31.2°
Sets 12:32:21 0° 32° (NNE) 5,568 10.6 -31.9°
